Wind_Speed
7 7 7 7 8 8 8 9 9 9 9 9 9 9 8 9 9 9 10 12 14 15 17 18 19 19 18 18 18 18 17 17 16 15 14 16 16 14 12 13 13 14 14 15 14 11 10 8 6 4 4 2 5 2 8 6 7 11 14 13 9 4 4 10 15 16 16 18 20 24 23 21 23 22 23 24 20 20 17 13 15 12 11 16 22 24 24 22
7 7 7 7 7 7 8 8 9 10 11 11 11 10 10 9 9 9 10 10 12 13 15 16 18 19 19 19 19 18 18 17 17 14 15 16 15 14 13 13 13 12 12 14 14 11 10 9 8 5 3 2 6 2 8 7 8 11 13 12 7 5 3 8 13 13 13 16 20 26 26 21 23 26 25 25 25 22 18 18 18 17 17 20 23 24 22 20
9 8 8 8 8 8 8 8 8 9 10 11 11 11 11 11 10 10 10 10 11 12 13 14 16 17 18 19 19 19 18 18 17 15 16 15 13 14 14 13 12 12 11 12 14 12 11 12 9 4 4 5 4 6 10 9 9 11 11 10 7 4 1 8 10 12 14 16 19 21 24 24 25 25 23 23 25 21 20 22 22 22 22 22 24 24 21 20
10 9 9 9 9 9 9 9 8 8 9 11 11 11 11 12 11 11 11 10 11 11 12 13 14 16 17 18 18 18 17 17 18 16 15 15 13 14 13 13 13 12 11 11 14 14 14 15 9 4 4 6 2 9 12 12 11 10 10 9 6 4 1 7 11 13 14 16 16 15 20 25 24 22 21 21 22 20 23 25 20 18 21 23 25 23 22 20
11 10 10 10 11 11 11 11 10 9 9 10 11 11 11 11 11 11 11 11 11 11 11 12 13 15 15 16 16 17 16 15 17 17 15 14 12 13 13 14 13 12 12 11 14 15 16 15 11 5 3 5 7 12 13 14 12 10 10 8 5 2 2 6 11 13 15 17 15 14 18 21 21 20 19 20 21 21 26 27 16 13 18 21 23 23 22 19
11 11 11 11 12 12 12 12 12 11 10 10 10 11 11 11 11 11 11 12 12 11 11 12 12 13 14 15 15 15 14 11 15 15 13 14 13 12 12 13 14 13 13 11 13 14 15 15 14 11 7 6 8 12 14 15 12 11 11 7 4 2 3 5 9 13 16 18 14 13 15 17 20 20 20 20 19 19 25 25 18 12 15 19 21 20 20 19
12 12 12 12 12 12 12 11 11 12 11 11 10 10 11 11 11 11 11 11 11 12 12 12 12 12 14 14 14 14 12 12 15 16 13 11 11 12 12 13 14 14 12 11 13 14 15 15 15 14 10 7 6 11 15 14 13 12 11 7 5 3 3 5 9 14 16 16 13 14 13 15 20 22 22 21 18 19 22 22 19 14 15 18 19 19 19 18
12 12 12 12 12 12 12 12 11 11 11 11 11 11 11 11 11 11 11 11 12 12 12 12 12 12 12 13 14 12 10 11 15 19 17 12 10 10 12 13 13 13 12 11 12 12 14 16 14 12 9 7 7 10 12 12 12 11 9 7 7 3 4 7 12 16 16 15 15 16 13 14 19 22 22 22 19 20 21 19 18 17 18 18 18 19 18 18
11 12 12 11 11 11 11 11 11 11 12 11 12 12 12 13 12 12 12 12 12 12 12 12 12 12 12 13 13 10 10 12 14 20 18 14 13 10 11 13 13 13 12 12 12 13 15 15 13 12 9 7 8 10 10 10 11 9 7 6 5 2 6 11 15 17 15 14 16 16 15 15 18 19 20 22 20 21 20 17 18 20 20 19 19 18 18 17
11 11 11 11 10 10 10 10 11 11 12 12 13 13 13 13 13 13 13 12 12 12 12 11 11 11 12 12 12 11 9 9 14 19 17 16 15 11 11 12 13 13 13 13 12 13 17 15 11 8 5 7 7 10 12 11 10 7 5 4 2 3 7 12 17 18 15 16 18 18 17 18 17 17 20 22 22 22 20 18 20 21 20 21 19 18 18 17
11 11 11 11 10 9 9 10 10 11 12 13 13 14 14 14 14 14 13 13 12 12 12 11 11 11 12 11 11 11 7 7 13 17 15 13 14 13 11 11 13 14 14 14 12 12 16 17 12 7 3 4 5 10 14 11 8 5 4 3 2 2 9 15 18 18 17 18 20 20 19 18 17 18 22 24 24 23 20 20 21 20 21 21 19 20 19 19
10 10 11 11 10 9 9 9 10 12 13 14 14 14 14 14 14 13 13 13 12 12 11 11 11 10 11 11 10 10 11 14 14 16 15 10 10 13 12 11 12 15 15 14 12 12 17 19 13 11 8 3 4 10 12 11 6 2 1 3 4 3 10 16 20 18 19 20 20 22 21 18 18 20 25 26 24 22 21 22 23 22 22 21 20 21 20 23
10 10 11 11 10 9 9 10 11 13 14 14 14 13 12 12 12 12 12 12 11 11 11 11 10 10 10 10 10 10 12 13 13 17 18 12 9 12 12 11 12 15 15 15 14 13 16 17 13 11 10 5 4 7 7 5 5 4 1 2 5 2 10 18 20 18 21 22 21 22 21 19 20 22 25 26 24 24 24 24 24 25 23 21 22 23 22 23
10 10 11 11 10 9 10 11 13 14 14 14 12 11 11 10 10 10 11 10 10 10 9 10 9 9 9 8 9 9 9 9 12 17 16 11 9 10 12 11 13 16 15 16 15 13 11 12 13 12 12 11 6 4 6 6 5 5 1 3 1 1 9 19 20 19 22 23 23 21 20 22 23 23 24 24 25 26 26 25 25 26 23 22 25 24 23 22
9 9 10 11 10 10 11 13 14 14 13 12 11 9 9 10 10 11 11 9 8 8 8 8 8 8 7 6 7 5 5 8 10 13 11 9 8 9 12 11 13 17 15 15 16 15 11 10 14 13 12 14 11 6 8 9 6 5 2 4 3 3 9 17 20 20 22 24 25 20 18 23 24 26 26 24 25 26 26 25 24 25 23 22 25 24 23 22
9 9 10 10 10 11 12 14 14 13 12 10 8 8 9 11 13 13 12 9 6 8 9 7 8 7 4 6 8 5 4 6 8 9 9 6 6 7 9 11 14 16 16 16 17 15 12 11 13 12 12 12 11 9 9 11 9 7 4 4 3 4 11 18 21 23 23 26 27 20 19 25 25 26 27 25 26 26 26 26 23 23 22 22 24 23 23 23
9 9 10 10 10 12 13 14 13 11 10 8 6 8 12 14 15 14 13 10 6 9 11 7 8 8 6 11 11 8 8 5 3 3 4 4 9 10 7 10 12 15 17 16 16 13 10 11 14 14 15 16 13 10 11 11 11 9 7 6 4 4 10 18 24 26 25 27 27 21 19 24 25 25 27 28 27 25 26 26 23 23 21 22 23 22 21 23
9 9 10 10 11 12 13 13 12 10 9 7 5 6 11 14 14 13 12 10 7 9 10 6 7 9 8 12 12 10 7 3 2 1 4 3 9 11 7 9 10 13 15 14 14 12 9 12 15 14 14 17 16 13 13 11 8 9 7 5 6 6 8 13 22 27 27 27 26 21 19 23 26 27 27 29 27 26 26 26 24 23 21 22 22 20 20 22
9 9 10 10 11 13 12 11 10 9 9 8 6 5 6 9 12 13 11 7 7 10 11 8 4 5 10 13 8 4 2 4 3 2 4 5 7 8 8 10 10 11 12 12 13 12 11 12 14 14 15 17 16 12 13 10 3 4 4 3 5 6 8 11 19 27 27 27 26 21 19 24 28 29 27 28 28 27 27 25 25 24 22 22 22 20 21 22
8 9 9 10 12 12 10 9 9 10 10 10 10 6 5 6 9 12 12 5 4 7 11 8 3 1 11 11 5 6 5 8 4 4 5 7 9 8 10 11 11 12 12 12 13 12 12 12 13 15 17 18 14 10 11 11 5 2 2 3 4 5 7 11 17 26 28 26 25 21 19 25 29 29 26 27 29 28 28 27 25 25 22 22 23 20 21 23
8 9 9 10 11 9 8 9 9 11 12 12 13 10 9 8 9 13 16 9 3 6 10 5 2 7 13 5 3 8 9 8 5 6 6 7 9 8 11 12 12 14 15 13 11 9 11 15 15 13 14 16 13 11 11 11 9 4 2 3 4 5 7 10 15 23 29 27 25 22 21 28 31 29 26 27 29 28 28 28 26 25 22 22 23 20 22 23
8 8 8 10 9 7 7 9 11 12 13 15 16 16 11 6 12 16 18 11 4 7 10 6 3 11 11 6 6 8 6 5 6 4 5 8 9 9 10 11 13 13 12 14 13 13 13 16 16 11 11 14 12 13 13 13 10 6 6 4 2 6 8 10 13 19 28 29 27 25 24 28 31 30 28 27 29 29 28 27 26 26 22 23 24 20 23 25
7 8 8 9 7 6 8 11 14 14 14 16 17 18 14 9 14 14 15 14 7 4 6 7 8 9 8 3 8 9 5 5 5 4 4 9 10 9 9 9 12 12 10 14 16 17 16 12 12 12 12 13 13 13 13 13 12 11 11 7 4 7 9 11 15 19 25 27 27 27 25 28 31 29 30 29 29 30 29 28 27 25 23 24 24 20 23 26
7 7 8 7 5 5 8 11 15 16 16 18 17 17 15 13 14 12 14 14 9 3 1 6 8 6 7 4 7 10 5 5 4 7 8 8 12 8 9 9 10 12 12 13 14 17 17 10 7 12 15 17 17 15 14 14 15 15 13 8 5 7 7 10 15 19 23 23 25 26 22 27 32 29 30 31 30 31 30 29 28 25 22 23 24 21 22 25
6 6 7 6 4 5 6 7 10 11 12 16 18 19 16 14 14 13 17 13 8 4 4 4 5 4 7 6 6 5 7 5 1 7 13 6 13 9 8 9 10 12 13 14 14 16 17 11 9 11 15 20 18 15 17 17 15 17 14 9 6 7 7 10 15 20 23 19 22 25 17 20 31 30 30 32 30 31 30 30 30 26 24 25 24 22 23 24
6 6 6 4 5 5 5 5 5 4 5 11 15 15 12 12 12 13 17 14 9 5 2 3 2 3 2 6 5 0 6 7 1 7 15 8 13 13 9 9 11 13 12 13 14 15 16 14 12 12 14 17 16 15 18 19 19 20 18 13 9 7 6 10 15 20 23 20 23 29 18 13 26 31 30 32 32 31 30 31 32 30 27 27 25 24 25 25
5 5 5 4 5 5 5 3 3 4 4 7 8 4 4 8 10 12 13 10 4 2 2 2 1 4 4 5 5 3 2 5 5 7 10 9 12 16 13 11 10 11 11 12 15 16 16 15 14 15 16 14 15 16 14 16 18 15 16 16 11 7 5 8 15 18 21 20 20 29 24 13 22 31 31 31 33 32 31 32 32 32 30 28 27 26 25 25
5 5 4 4 5 5 5 3 3 5 5 4 4 4 5 8 8 11 11 6 2 5 1 2 2 7 5 4 5 5 5 2 7 7 4 7 11 16 14 12 9 9 11 12 14 14 13 14 14 16 19 17 16 15 12 12 10 13 16 15 11 8 6 8 14 15 16 16 16 26 26 12 14 29 32 31 33 33 32 33 33 32 31 30 29 27 25 25
5 4 3 4 5 5 4 4 4 5 6 4 6 7 7 8 9 10 6 4 3 3 2 1 3 6 2 2 3 7 5 2 4 4 4 7 11 17 14 11 8 8 11 13 15 14 12 15 14 11 16 19 15 14 13 10 8 16 17 12 10 8 9 11 11 9 10 11 13 25 29 13 7 25 35 33 35 36 33 33 33 32 31 31 30 27 27 27
4 3 3 5 5 5 4 4 5 6 6 5 5 5 7 10 10 8 4 4 4 3 3 3 4 5 3 3 1 5 6 3 3 3 5 5 9 16 14 10 8 8 9 12 17 16 10 12 12 10 14 17 14 13 12 6 10 22 18 13 15 12 11 11 9 8 6 6 11 21 31 19 6 19 34 36 37 36 33 33 34 33 31 31 30 28 28 27
4 3 3 5 5 5 4 4 5 6 6 6 5 5 9 11 8 5 3 4 5 3 2 2 4 5 4 4 2 5 5 4 4 3 5 6 9 12 11 10 9 6 7 10 15 14 8 8 11 14 16 14 11 14 12 6 15 24 16 14 17 13 10 8 7 7 3 3 6 14 27 22 9 14 27 34 37 34 32 32 34 35 32 30 31 29 28 28
3 1 2 5 6 5 3 3 4 6 8 7 7 9 11 10 9 7 6 8 4 4 4 0 3 3 3 3 4 6 5 4 6 6 6 7 9 11 11 13 11 7 7 10 13 13 12 11 12 16 18 15 11 13 15 14 18 17 13 15 15 9 5 4 4 3 2 1 3 8 20 18 13 16 21 29 34 33 32 30 31 34 31 30 31 29 29 29
2 1 2 5 7 5 4 4 3 5 7 6 7 10 9 7 6 6 10 10 5 7 9 4 4 1 1 5 6 4 4 4 3 7 9 7 9 11 11 13 15 11 9 8 11 13 11 11 11 13 15 17 14 15 17 18 21 18 13 14 11 6 3 2 2 1 1 0 2 6 15 11 12 16 17 23 30 32 32 29 29 33 31 30 31 29 30 31
2 1 3 6 8 6 4 2 2 3 4 5 7 9 8 9 10 10 12 9 9 11 8 4 3 2 2 5 2 3 6 3 3 2 8 6 8 12 11 12 14 15 12 9 11 14 11 10 11 12 12 17 18 21 18 11 16 19 13 9 8 9 6 3 4 3 5 2 3 9 11 6 7 9 11 17 23 29 33 31 30 33 33 32 31 31 31 31
2 1 4 7 8 6 3 2 2 2 4 5 7 7 9 12 15 14 11 8 12 13 8 6 5 5 3 1 2 0 5 5 4 3 8 8 9 10 10 10 11 14 12 7 9 12 13 15 16 13 12 13 16 23 20 9 7 13 14 10 7 8 9 9 7 8 10 4 4 8 7 5 6 5 6 12 19 28 31 31 34 36 35 35 34 33 32 31
2 1 4 7 8 6 3 2 1 1 2 5 8 8 12 14 15 14 12 12 14 11 11 11 6 6 4 2 1 4 3 3 5 4 6 7 8 9 9 9 11 12 8 2 6 7 8 10 13 16 16 12 10 17 19 11 5 8 14 12 11 11 11 12 9 7 8 4 1 5 4 4 5 5 5 9 16 27 30 30 32 32 32 33 34 33 31 30
2 2 3 7 8 6 5 3 2 1 1 4 8 10 15 14 11 11 13 15 13 8 10 11 8 8 7 3 5 1 5 4 4 3 2 5 5 7 5 8 6 7 2 4 7 9 9 9 7 13 22 18 10 12 17 13 8 7 7 5 7 11 11 11 8 6 5 1 2 7 8 7 6 5 7 10 14 23 29 29 28 29 30 32 35 34 30 31
4 4 3 5 6 5 4 4 2 2 3 5 8 12 16 15 9 7 10 14 13 8 7 9 7 7 6 7 9 3 3 4 1 0 3 4 4 5 3 8 2 6 2 1 9 8 7 11 8 11 23 20 10 9 15 17 14 12 5 3 10 11 9 10 7 5 4 0 1 5 7 9 11 10 9 14 19 21 24 26 26 28 32 33 35 35 32 31
7 7 5 4 5 4 2 3 2 3 4 7 12 13 13 15 11 7 9 11 11 6 6 8 8 6 5 5 5 3 5 5 2 2 4 4 2 2 3 6 2 9 4 2 7 8 6 8 6 11 18 16 14 8 14 19 18 14 7 3 7 9 8 12 10 5 5 3 1 2 3 8 13 12 9 12 18 19 21 24 26 29 33 33 34 36 34 32
8 8 6 6 6 1 4 3 3 2 4 9 12 12 13 12 9 8 8 9 8 6 6 8 7 6 5 3 3 4 4 3 3 3 3 3 2 1 3 4 2 4 7 5 7 10 7 8 7 7 13 14 17 14 12 16 17 14 11 8 6 7 7 10 11 7 6 5 3 2 1 5 9 11 11 10 12 15 16 19 24 29 34 36 34 35 35 33
9 9 9 7 6 5 5 2 3 4 6 10 11 12 13 8 6 10 10 6 6 6 8 9 5 5 6 3 4 6 5 4 4 4 4 4 4 3 3 3 3 4 4 4 4 7 7 7 8 3 4 6 12 16 14 14 15 14 14 12 8 7 7 6 5 6 7 7 8 7 2 1 6 10 11 10 10 12 11 12 18 24 32 38 37 34 35 33
11 11 10 5 9 7 6 8 9 8 11 14 12 11 11 6 6 10 10 7 6 6 7 7 3 4 6 4 4 7 3 6 4 3 2 3 5 4 6 6 7 5 3 7 8 9 8 6 9 10 7 6 6 13 12 11 16 16 15 14 11 9 8 7 4 5 5 3 7 9 3 2 7 8 8 9 9 9 10 12 13 17 27 36 38 37 36 33
10 10 10 7 11 12 9 10 9 9 13 13 11 11 9 6 7 9 9 9 6 6 6 6 4 3 4 3 6 9 4 9 6 1 1 2 4 4 5 2 4 7 9 11 9 8 6 5 11 12 8 8 7 12 10 9 17 17 14 17 19 14 11 11 7 6 6 4 7 7 2 3 9 8 7 8 9 9 10 13 14 15 20 29 36 39 38 35
7 5 7 9 10 14 11 10 8 8 10 10 10 11 9 6 6 8 9 7 5 5 6 4 3 3 3 4 5 6 5 5 2 2 2 3 4 3 3 4 4 8 11 10 9 8 5 7 14 12 7 9 6 6 9 9 12 13 12 15 19 16 12 12 11 12 12 10 9 6 2 7 9 9 9 7 8 10 10 13 17 18 19 24 32 38 38 36
4 3 4 7 12 9 5 8 9 8 9 9 10 12 10 7 4 6 8 5 4 5 4 3 3 3 4 4 1 2 3 2 2 3 4 4 6 2 1 5 4 8 12 11 10 9 6 6 10 9 6 6 5 3 3 1 5 10 9 8 13 16 15 12 10 15 14 10 12 12 10 13 13 10 9 7 8 10 10 12 16 19 20 22 28 36 38 37
7 5 4 4 10 7 4 7 9 9 8 8 9 10 9 3 2 3 5 3 3 4 3 2 2 4 4 3 1 0 1 4 4 2 1 2 3 3 1 4 2 8 11 11 9 8 6 5 8 7 6 7 10 10 8 6 3 12 12 6 7 8 8 11 10 13 14 10 14 13 12 15 16 12 7 7 8 8 9 11 15 19 22 23 25 31 35 36
12 7 8 10 6 6 6 9 10 9 7 4 6 9 9 5 2 2 3 5 2 1 3 1 3 4 4 3 3 1 1 3 2 1 2 1 1 4 2 2 3 8 8 10 9 6 4 5 6 7 9 11 12 12 10 9 6 8 7 9 8 6 5 9 6 5 15 15 14 13 12 12 15 13 7 6 8 8 9 11 14 17 19 22 24 28 34 36
12 7 8 10 8 7 6 8 9 9 7 4 4 7 9 8 6 2 1 6 1 2 4 3 2 3 2 0 2 1 0 2 1 2 3 3 2 3 2 1 2 3 6 10 5 3 4 6 7 9 12 10 9 11 11 9 6 2 3 13 7 2 7 15 16 11 8 16 15 16 15 10 11 10 6 6 8 8 8 9 12 14 15 19 22 25 30 35
16 13 12 12 9 9 5 6 6 7 7 7 6 6 7 5 4 4 3 3 5 3 3 2 2 2 3 1 1 1 2 1 2 4 3 3 2 5 5 5 3 2 5 10 5 2 4 6 8 11 13 10 9 9 6 7 7 8 7 14 17 13 18 24 20 13 5 13 16 18 16 12 9 6 6 6 7 8 8 6 8 11 13 16 18 19 22 29
19 18 15 11 10 10 3 2 3 7 6 7 6 7 8 6 5 5 5 4 4 8 3 0 2 3 4 2 1 0 2 1 1 1 0 2 1 5 7 9 6 2 4 8 7 5 6 7 9 9 10 11 9 6 6 9 5 15 17 17 16 12 14 20 21 20 19 20 22 22 20 16 11 7 8 8 8 9 9 7 7 9 12 14 15 17 18 21
17 18 13 10 11 8 5 5 6 8 7 5 5 6 8 7 5 3 2 4 4 6 5 3 2 1 2 1 1 2 3 2 1 2 1 1 2 2 3 5 4 2 5 8 6 5 6 8 8 7 8 11 7 8 13 11 8 21 25 25 21 18 17 19 21 22 21 20 21 22 20 16 11 8 7 7 7 7 7 7 7 8 11 14 15 15 14 15
14 15 13 12 12 8 8 8 4 6 8 8 8 6 6 7 6 4 2 2 4 6 3 4 0 1 1 2 2 1 4 2 2 3 7 5 1 4 5 4 5 7 7 8 5 1 6 10 10 9 9 11 11 13 16 13 20 22 24 23 22 20 17 16 17 16 14 14 16 18 16 12 10 9 8 7 6 6 3 2 4 6 8 10 11 12 13 12
Wind_Direction
352 349 345 340 336 332 328 325 323 320 315 311 307 301 294 288 282 277 273 269 268 267 266 265 263 262 262 261 260 259 257 256 255 253 250 244 245 248 241 242 241 238 235 231 230 229 230 228 222 231 241 265 73 148 255 292 319 324 325 337 2 31 112 173 191 191 181 179 171 144 144 154 145 141 134 134 140 142 140 139 150 166 173 160 154 153 155 156
360 357 351 346 339 335 329 326 323 319 315 312 310 308 304 298 293 286 279 274 270 268 268 266 265 263 262 262 261 261 259 258 256 253 253 248 245 247 243 241 240 239 235 229 225 217 217 211 201 208 203 113 78 179 256 281 308 326 330 346 17 35 81 175 190 187 177 180 171 147 152 157 144 142 138 144 150 148 147 148 161 171 169 163 156 155 155 156
2 359 355 350 345 339 335 330 326 321 316 311 310 309 307 304 301 296 288 281 275 272 270 268 267 265 263 262 261 261 260 259 256 251 254 254 247 244 241 239 239 239 234 226 222 210 205 203 185 160 113 94 100 232 261 276 294 317 326 349 8 3 52 182 186 189 183 179 175 156 154 150 145 149 149 154 152 150 155 156 168 174 168 163 158 156 155 158
0 357 354 350 348 345 341 336 331 324 319 314 311 309 308 307 304 301 297 291 284 279 274 272 271 268 267 264 262 261 261 261 256 248 249 253 248 244 239 236 236 235 232 222 216 206 204 202 172 128 109 102 169 246 262 274 287 310 322 344 348 346 89 178 182 188 182 175 175 162 158 149 145 154 156 153 145 146 162 169 174 167 162 160 158 157 157 160
357 353 352 351 350 349 345 340 336 330 324 318 315 312 311 309 306 306 303 299 295 289 283 278 274 272 271 268 265 263 261 262 257 247 244 247 246 244 237 233 233 232 231 221 214 208 208 199 162 166 198 152 223 256 268 277 287 309 323 335 330 316 142 174 180 177 172 175 172 166 168 150 141 155 151 141 140 152 172 181 177 156 159 158 156 158 158 161
353 350 350 349 349 349 346 341 336 332 329 325 322 319 316 314 311 309 306 306 303 298 293 286 281 277 274 272 270 266 258 254 256 252 246 244 241 239 237 231 229 232 232 224 216 207 207 198 163 171 214 188 213 254 270 283 290 303 316 322 323 280 191 177 171 162 163 174 170 173 177 145 139 149 142 135 143 167 183 185 181 165 159 156 156 160 159 161
350 346 346 348 347 345 342 338 335 332 332 330 329 325 323 320 317 314 312 310 306 304 301 295 291 282 278 277 272 271 263 247 250 254 247 242 241 233 232 231 227 229 231 227 220 208 203 194 160 158 195 210 216 250 264 279 288 296 307 306 321 313 231 183 160 153 158 168 164 170 165 139 145 146 140 139 149 178 187 189 192 177 160 158 159 160 159 160
346 342 343 347 345 342 340 336 334 332 331 332 332 331 329 326 322 319 316 313 311 308 304 301 297 289 284 278 276 278 268 250 248 253 250 243 247 237 230 229 225 226 225 226 221 209 202 187 155 147 175 205 228 253 265 275 288 297 302 303 322 323 209 180 160 154 156 158 157 158 142 134 148 145 138 139 154 183 189 192 188 172 162 159 159 160 157 158
342 339 339 343 345 341 338 334 333 332 332 333 333 332 330 327 324 320 316 314 312 308 306 304 299 294 287 279 278 273 268 270 256 252 251 244 245 240 233 228 221 221 217 221 220 206 195 174 152 157 179 209 240 275 285 283 284 289 312 330 326 261 182 175 165 160 158 154 153 146 135 141 143 138 137 141 163 185 191 191 171 162 161 157 160 157 153 156
339 336 335 341 345 340 337 335 332 331 332 333 332 331 327 323 319 317 315 311 309 306 304 302 298 294 287 282 278 266 274 288 268 258 251 239 238 233 228 226 217 214 212 215 217 209 189 162 142 154 196 223 243 285 289 286 278 275 325 6 318 215 170 171 166 162 160 153 152 148 147 150 141 142 148 151 170 185 189 182 161 158 157 156 158 151 153 153
336 334 333 340 344 340 337 333 331 332 333 333 330 326 323 320 317 315 312 309 307 304 302 300 298 293 285 281 276 271 258 243 261 268 257 235 231 229 226 222 212 207 211 212 209 212 187 155 140 157 213 247 248 272 278 286 285 286 319 340 335 169 165 169 167 166 163 156 157 155 150 148 145 152 154 158 174 184 183 170 157 156 153 156 155 150 152 142
334 334 332 338 344 340 336 333 334 334 333 332 328 326 323 321 319 317 313 310 308 308 307 303 298 294 288 284 278 269 246 237 253 267 267 260 236 230 229 220 208 201 207 210 199 197 180 152 147 182 200 238 259 261 282 299 287 279 326 3 14 133 169 172 169 172 168 161 161 155 148 150 155 158 158 164 174 176 172 162 154 153 156 160 151 151 152 142
333 333 331 337 343 338 335 336 338 336 334 333 330 331 329 328 327 323 319 317 317 315 311 307 305 299 291 287 278 265 256 254 256 260 267 272 244 225 225 216 203 200 202 205 191 175 171 158 161 195 200 201 260 256 265 273 239 249 268 25 1 116 174 178 174 178 171 164 164 157 155 158 158 161 165 167 170 168 165 158 154 158 164 163 150 153 158 152
332 334 333 337 340 338 338 340 341 338 336 335 336 339 340 342 341 334 330 328 329 324 319 317 310 305 300 289 279 273 276 270 254 259 269 267 247 221 216 212 199 197 200 204 188 159 162 174 182 200 202 198 213 246 242 231 222 253 210 111 358 141 179 185 180 180 173 166 168 165 163 159 157 165 167 165 167 167 163 158 160 166 170 164 154 161 164 158
332 335 334 336 339 340 341 344 342 339 339 342 345 350 0 6 2 354 347 343 343 341 339 335 326 324 319 297 293 292 292 279 255 256 259 250 242 218 208 204 197 195 193 201 188 159 163 202 210 208 201 200 195 202 249 259 234 223 188 131 147 164 183 190 187 183 178 172 169 169 169 160 162 169 164 163 168 166 162 162 168 172 174 167 161 169 168 158
330 336 336 336 340 343 345 345 343 342 345 348 355 11 24 21 17 12 4 359 11 19 12 8 7 3 3 352 338 328 323 295 265 253 245 225 194 194 208 196 193 196 187 191 189 169 165 195 217 218 209 199 189 196 236 252 227 208 212 191 169 171 183 190 192 189 184 178 172 173 174 165 169 171 159 162 170 168 165 167 175 177 176 170 166 175 171 160
329 337 337 336 343 347 347 345 345 348 351 355 14 38 39 28 19 15 14 16 35 32 22 27 34 36 33 11 356 339 343 336 302 253 226 202 166 169 210 201 188 193 187 184 185 173 167 191 208 220 214 194 184 205 225 229 220 215 212 207 210 190 185 189 192 192 187 184 180 177 177 170 171 167 158 164 171 171 169 171 177 180 177 169 170 179 171 163
331 339 338 340 348 350 349 349 354 359 4 12 20 47 44 30 22 14 15 26 29 22 13 1 24 39 32 9 5 14 9 316 336 69 159 170 165 168 198 204 187 186 185 183 182 176 181 205 211 213 211 197 191 202 217 219 219 225 219 215 225 202 190 191 192 195 191 189 187 181 179 176 169 163 163 169 171 173 173 175 179 181 181 171 174 183 169 165
333 340 340 346 352 352 354 358 9 15 21 23 14 34 31 22 28 8 356 21 18 6 353 324 324 27 17 6 358 33 75 244 290 81 144 144 153 180 202 192 172 168 179 190 190 185 190 207 215 209 203 200 194 195 218 230 232 228 222 228 240 215 196 194 194 196 194 191 190 185 182 179 172 165 166 171 174 177 174 178 182 184 186 173 177 187 167 166
334 341 345 353 355 357 4 15 28 27 28 26 16 17 327 340 33 3 340 355 8 357 347 321 227 305 348 350 298 252 287 306 287 160 173 177 167 198 204 176 158 167 188 199 192 192 196 202 213 216 206 197 194 202 221 230 230 209 159 175 214 220 200 191 193 195 195 192 189 187 183 179 172 164 166 175 180 180 176 180 184 189 190 175 182 192 166 168
337 344 350 357 359 6 23 34 37 30 31 25 16 14 336 338 39 9 338 338 17 8 351 336 220 300 308 291 255 283 291 301 265 187 189 190 172 192 192 167 169 187 191 187 189 200 203 207 214 223 209 188 191 214 217 217 227 232 181 169 187 205 198 188 192 194 194 194 188 185 185 179 169 163 171 182 184 182 180 182 184 191 191 174 187 194 166 172
338 348 355 1 6 25 44 45 38 34 36 31 28 25 5 10 43 12 332 319 7 3 343 352 339 307 295 205 198 290 267 226 253 225 180 173 167 181 188 172 182 201 193 180 197 210 205 214 218 218 209 189 191 214 211 201 208 229 220 207 191 189 180 175 182 188 191 194 190 185 188 180 168 168 175 181 185 183 184 185 184 192 190 176 192 193 168 178
342 353 358 5 20 49 61 55 46 44 44 38 36 30 23 38 38 7 316 302 320 348 310 317 327 301 296 213 217 281 278 205 251 252 194 173 169 180 193 187 184 198 202 191 202 208 208 232 225 204 206 204 204 208 207 207 212 233 231 215 193 182 175 169 172 183 190 195 194 186 184 181 172 175 179 178 184 185 186 187 185 195 193 181 195 194 176 186
348 357 1 12 41 70 73 67 57 57 53 42 34 25 21 26 24 355 325 316 312 19 133 289 322 291 277 276 257 279 255 208 235 247 250 193 172 183 193 195 195 199 209 206 208 210 213 244 239 200 200 207 215 210 207 220 217 218 230 226 196 177 179 174 168 180 189 193 196 186 180 184 180 180 181 180 186 188 189 188 185 193 193 187 199 199 186 191
354 1 4 24 67 82 78 75 67 60 59 54 35 17 9 13 13 339 331 332 304 354 93 221 308 303 260 251 275 285 204 207 218 241 265 215 164 181 194 199 207 206 211 207 211 225 223 232 234 211 200 205 220 216 209 219 208 201 222 234 210 179 171 174 166 172 180 186 197 189 180 188 188 186 185 183 187 190 192 190 186 189 188 191 202 200 192 194
358 2 8 47 86 88 83 77 64 32 52 68 41 9 350 358 359 331 332 335 305 324 82 204 289 354 283 242 252 184 198 235 232 226 260 244 168 179 205 216 213 208 214 210 213 232 228 218 218 211 201 205 217 220 215 217 209 205 214 216 210 193 160 170 174 172 178 185 196 195 190 190 194 194 190 187 190 193 194 192 190 189 186 193 201 198 196 196
359 4 15 74 97 92 92 71 35 15 32 71 67 36 349 3 354 348 352 336 310 64 84 208 296 343 318 262 219 165 276 246 193 203 249 252 192 186 201 209 210 208 207 213 216 222 227 223 216 208 205 202 208 217 217 211 204 196 197 196 189 175 135 161 176 178 185 186 189 196 196 191 200 202 195 191 194 195 195 195 195 191 186 192 200 198 198 200
357 6 26 96 106 97 89 58 30 29 24 30 67 78 39 22 6 9 9 338 20 73 57 205 332 335 306 260 204 204 310 290 194 197 221 247 210 191 196 197 206 215 204 224 233 220 225 223 206 207 208 196 201 215 208 201 179 144 160 177 166 147 125 149 170 181 192 184 180 193 196 192 205 205 199 197 201 200 197 197 197 195 188 191 200 198 197 203
357 9 45 109 112 106 88 64 62 48 47 44 40 40 29 26 12 2 349 312 349 17 355 7 359 16 112 220 213 211 279 316 181 214 269 266 207 189 200 206 215 228 213 230 243 228 216 208 202 215 209 193 199 210 199 207 176 146 154 154 134 130 135 139 152 172 185 186 193 197 195 194 205 202 200 202 205 203 200 199 200 200 192 191 199 196 193 203
355 7 73 124 123 112 90 63 67 59 63 63 39 25 20 22 6 337 299 301 332 353 28 26 6 34 154 225 239 202 253 276 169 220 267 258 200 193 202 207 216 240 235 229 234 233 218 204 206 207 196 191 203 204 195 219 176 162 160 141 122 113 127 132 133 144 157 201 220 206 197 195 198 201 203 207 209 206 203 202 201 200 194 190 197 196 192 201
352 12 104 135 135 120 93 59 69 76 72 58 41 36 27 11 335 287 272 321 317 328 34 119 29 23 202 230 267 204 225 245 217 245 248 205 205 217 216 217 224 243 251 230 229 238 240 225 206 192 190 190 203 201 192 204 179 166 158 138 121 110 120 113 111 137 156 251 247 216 199 196 206 209 210 214 213 209 208 206 202 201 197 191 196 196 194 202
351 28 128 140 140 123 92 78 80 83 71 47 27 31 28 354 305 257 286 315 305 336 356 47 344 343 215 256 271 215 224 252 229 239 239 200 206 226 221 213 208 211 238 235 230 233 240 233 199 184 190 183 186 194 182 180 185 179 162 139 122 117 140 96 94 161 235 290 305 222 198 200 228 227 216 213 210 208 211 211 206 205 200 192 195 195 193 202
341 48 136 148 142 124 104 99 89 80 61 33 21 25 13 329 295 272 308 335 24 5 349 342 323 295 182 312 295 224 248 294 267 223 214 202 205 215 220 211 205 221 246 242 222 213 230 237 193 170 187 190 190 192 182 176 179 179 169 154 139 133 151 119 121 175 251 116 44 190 189 204 238 235 224 215 209 207 212 214 209 207 203 194 192 194 196 203
331 73 147 154 142 131 123 108 93 83 50 20 21 19 347 305 305 326 344 1 5 347 345 11 338 238 236 316 309 173 201 238 344 237 201 213 217 209 218 221 222 239 248 252 230 200 203 229 197 169 189 207 208 200 198 198 189 183 177 171 161 148 140 141 151 181 217 204 105 160 180 207 235 237 232 222 212 209 212 212 207 205 203 195 189 194 201 204
352 75 150 151 146 143 137 152 172 77 27 10 16 356 314 301 305 328 4 357 328 336 346 355 336 282 273 144 116 301 229 240 314 253 200 213 232 217 207 213 233 242 230 247 255 208 201 216 206 197 204 216 220 211 212 242 243 203 191 194 204 183 155 133 138 176 189 171 118 167 191 230 239 246 228 215 208 204 206 205 204 205 203 194 187 194 203 205
35 92 152 152 155 153 140 161 184 25 349 357 9 332 298 304 311 329 352 336 326 339 339 349 4 318 315 149 269 307 250 287 319 261 201 196 244 246 218 225 239 229 210 286 301 264 239 223 205 204 204 206 223 217 216 242 272 194 192 211 231 214 166 133 126 154 162 138 139 205 245 253 237 247 215 203 204 201 200 201 205 209 206 194 188 193 201 206
70 81 138 160 166 163 162 163 163 272 297 347 352 323 310 312 310 323 339 334 333 333 327 355 15 335 345 2 312 225 177 278 308 293 141 151 254 259 248 298 271 214 264 319 263 269 282 277 249 198 194 199 212 213 214 229 239 202 191 196 188 181 159 142 136 142 149 84 186 207 243 241 215 222 198 177 180 191 198 205 211 213 208 197 189 191 197 204
86 85 113 166 160 152 169 160 161 271 328 336 313 311 327 331 312 320 348 337 332 339 345 3 355 328 356 344 327 68 92 312 251 4 77 134 265 231 210 326 313 176 348 309 215 250 301 297 287 183 184 190 188 213 220 218 227 235 236 123 141 153 157 157 150 145 160 18 212 206 243 239 219 221 208 180 172 177 191 206 215 213 207 198 190 191 194 202
86 89 102 125 110 109 260 287 293 298 313 302 291 292 318 334 326 334 1 341 328 346 4 352 329 319 10 356 331 40 18 353 119 92 69 104 298 225 230 312 185 185 260 281 239 285 329 309 283 169 174 176 163 199 231 217 218 230 238 216 166 161 172 181 181 169 154 147 210 214 256 249 229 220 217 195 184 187 194 204 214 211 204 199 194 193 194 198
70 79 93 104 121 187 291 288 272 286 297 296 296 294 301 314 319 334 360 355 346 0 355 343 332 339 26 37 337 6 30 35 88 104 92 142 194 1 326 323 91 211 262 275 277 289 303 306 295 179 174 176 174 188 213 217 221 222 226 246 222 186 180 183 190 196 173 151 149 154 214 249 223 203 210 213 199 203 207 211 218 215 205 200 196 196 196 195
75 64 62 100 183 254 325 329 283 296 292 287 289 302 311 311 318 332 335 339 358 9 357 353 354 5 24 35 336 3 79 76 49 109 118 171 189 11 348 249 314 325 271 272 299 309 316 321 326 300 231 236 210 194 189 203 218 219 226 240 237 217 197 165 172 206 203 181 173 179 172 206 205 203 214 223 210 204 210 218 224 220 209 201 196 199 202 197
95 80 74 127 216 264 315 292 289 287 277 276 276 297 316 314 318 331 334 339 336 326 348 11 15 340 1 44 355 342 59 83 64 119 121 168 197 315 320 261 292 329 324 320 324 329 330 321 323 318 306 307 233 190 182 203 207 209 222 226 222 231 221 197 189 201 223 224 166 161 118 124 195 206 215 222 212 197 202 210 215 217 210 202 198 200 202 196
121 119 117 152 235 267 279 272 279 274 278 291 288 285 291 294 315 337 358 11 352 315 338 8 7 343 351 25 350 338 44 100 96 92 2 147 180 298 327 337 340 343 338 332 322 310 317 354 346 325 287 284 252 191 181 204 205 208 216 211 213 225 219 214 215 187 199 211 140 118 53 207 190 186 194 209 206 191 189 191 190 195 200 198 197 197 194 193
126 131 131 147 223 263 268 252 260 275 295 316 304 285 282 274 287 310 328 351 2 356 1 344 345 24 357 341 344 355 54 105 96 82 91 66 62 1 2 72 41 350 341 334 319 309 327 17 1 347 326 314 298 175 167 191 216 243 241 208 211 221 215 219 216 191 196 198 162 135 166 194 189 183 182 192 205 202 191 180 179 181 183 186 190 193 192 195
136 137 133 169 217 262 283 232 250 284 293 296 293 293 292 267 256 309 313 300 299 329 347 333 347 1 322 322 345 30 41 30 8 108 124 43 30 19 111 97 60 357 347 337 318 312 320 347 351 357 4 335 311 320 335 280 243 255 244 207 215 218 214 222 203 183 192 187 163 160 159 168 182 186 178 184 206 209 199 186 183 184 187 188 191 196 198 200
191 176 11 314 232 248 303 247 260 286 272 264 276 283 280 246 139 2 342 331 283 293 314 313 342 350 335 335 358 104 68 33 31 117 143 14 5 344 143 136 15 336 348 357 342 310 285 311 344 345 325 308 303 306 325 350 281 225 221 257 262 221 215 243 232 198 191 156 132 146 153 162 177 180 174 185 198 206 206 200 195 196 201 204 204 206 207 205
207 216 341 335 248 226 267 265 270 277 267 264 280 276 277 303 327 269 331 355 318 240 2 301 258 331 342 292 307 334 122 19 37 165 359 41 105 4 29 152 328 319 335 5 359 326 289 297 333 332 311 307 303 298 301 318 302 218 227 310 289 241 278 289 283 193 180 161 133 147 164 169 176 177 175 179 181 191 204 210 208 208 211 212 211 211 211 209
211 236 292 292 258 223 241 275 276 266 272 288 293 282 283 313 331 253 1 11 12 199 359 355 273 329 14 273 315 358 209 359 139 211 349 57 109 342 340 70 15 304 330 355 342 272 284 299 315 319 309 294 280 296 300 301 320 116 50 7 12 202 6 30 44 52 162 175 157 157 163 158 162 172 177 177 175 179 191 212 216 213 215 216 214 214 214 214
211 219 229 239 230 200 216 305 289 257 280 287 276 277 280 302 317 256 236 26 29 17 352 15 59 39 33 16 287 285 285 286 191 244 288 78 54 324 317 343 2 240 328 359 4 267 286 309 321 311 301 294 290 297 269 260 342 49 66 30 45 66 50 52 59 54 108 157 149 147 149 137 133 151 159 166 182 183 184 209 218 210 212 216 219 221 222 221
216 219 220 223 212 195 186 354 241 240 272 283 267 261 267 284 303 278 215 189 0 9 17 334 46 48 23 23 171 356 326 209 146 322 249 105 325 292 302 329 342 280 315 353 12 1 337 332 333 312 292 298 306 304 254 257 351 63 63 40 46 70 60 59 70 78 97 121 134 141 145 140 139 150 153 164 190 194 188 204 217 209 207 211 217 222 226 226
229 233 240 238 222 211 182 163 210 248 248 258 280 252 242 261 292 332 108 178 275 337 5 355 340 288 348 72 113 27 80 130 26 9 234 304 340 299 293 323 347 327 314 337 354 7 356 337 329 329 305 298 321 353 324 313 80 77 48 37 55 72 71 66 65 73 87 106 123 130 128 131 149 169 169 178 200 198 188 195 208 214 214 214 214 217 224 226
237 241 249 241 229 223 203 187 226 278 245 247 270 250 244 278 284 272 340 1 265 250 296 356 21 217 25 108 186 223 149 148 334 232 218 229 309 330 293 284 335 330 309 320 326 328 342 326 317 336 323 305 336 353 342 14 69 60 30 39 65 72 75 75 63 63 75 92 108 110 105 119 148 168 185 202 211 217 221 210 215 220 223 222 214 214 223 221
Height
3153 3152 3152 3151 3151 3150 3149 3149 3148 3148 3147 3147 3146 3146 3146 3146 3146 3145 3145 3145 3145 3144 3144 3145 3145 3145 3145 3146 3146 3147 3147 3148 3149 3150 3151 3152 3153 3154 3156 3157 3157 3158 3159 3161 3163 3165 3167 3168 3169 3169 3170 3169 3170 3172 3172 3173 3174 3174 3173 3172 3171 3170 3170 3172 3173 3173 3175 3177 3176 3176 3179 3181 3182 3185 3187 3188 3191 3192 3193 3194 3194 3194 3195 3195 3196 3196 3198 3199
3152 3152 3152 3151 3150 3150 3149 3149 3148 3147 3146 3146 3146 3145 3145 3145 3145 3145 3144 3144 3144 3143 3143 3143 3143 3143 3144 3144 3145 3145 3146 3147 3148 3150 3150 3150 3152 3153 3155 3156 3156 3157 3158 3160 3161 3164 3166 3167 3168 3169 3169 3169 3170 3172 3172 3173 3174 3174 3173 3172 3171 3171 3172 3173 3174 3174 3175 3177 3177 3174 3177 3181 3183 3185 3187 3188 3190 3192 3193 3194 3194 3193 3193 3195 3196 3197 3199 3200
3152 3151 3151 3150 3150 3149 3149 3149 3148 3147 3146 3145 3145 3145 3144 3144 3144 3143 3143 3143 3143 3142 3142 3142 3142 3142 3142 3142 3143 3143 3144 3145 3146 3149 3149 3149 3151 3152 3153 3155 3155 3156 3157 3159 3160 3162 3164 3166 3167 3168 3169 3169 3171 3172 3173 3173 3174 3174 3173 3172 3172 3172 3173 3174 3174 3176 3176 3178 3180 3176 3175 3179 3184 3186 3187 3188 3190 3192 3193 3192 3191 3191 3192 3194 3196 3197 3199 3200
3151 3151 3150 3150 3149 3149 3148 3148 3147 3147 3146 3145 3144 3144 3144 3143 3143 3142 3142 3142 3142 3142 3141 3141 3141 3140 3140 3141 3141 3142 3143 3143 3144 3147 3147 3148 3149 3151 3152 3153 3154 3155 3156 3158 3159 3160 3162 3164 3165 3168 3169 3170 3172 3173 3173 3173 3174 3174 3173 3173 3173 3173 3173 3174 3174 3176 3177 3179 3181 3180 3178 3178 3182 3186 3187 3189 3190 3192 3193 3191 3190 3191 3192 3194 3196 3198 3199 3201
3151 3150 3150 3149 3148 3148 3147 3147 3146 3146 3146 3145 3144 3143 3143 3142 3142 3142 3141 3141 3141 3141 3140 3140 3140 3139 3139 3139 3140 3140 3141 3141 3142 3144 3145 3147 3148 3149 3151 3152 3153 3154 3155 3157 3158 3159 3161 3162 3164 3168 3169 3170 3172 3173 3173 3173 3173 3173 3173 3173 3173 3172 3173 3174 3175 3177 3178 3180 3181 3182 3182 3180 3181 3187 3188 3189 3190 3191 3191 3191 3192 3193 3194 3195 3196 3198 3199 3201
3151 3150 3149 3148 3148 3147 3147 3146 3146 3145 3145 3144 3144 3143 3142 3142 3141 3141 3141 3140 3140 3140 3139 3139 3139 3139 3138 3138 3139 3139 3140 3140 3140 3142 3144 3146 3147 3148 3149 3151 3152 3153 3155 3156 3157 3158 3160 3161 3163 3166 3169 3171 3172 3172 3172 3172 3172 3173 3173 3172 3172 3173 3173 3175 3176 3177 3178 3181 3182 3183 3185 3181 3182 3188 3189 3190 3192 3191 3191 3192 3194 3195 3196 3197 3197 3199 3200 3202
3150 3150 3149 3148 3147 3147 3146 3146 3145 3145 3144 3143 3143 3142 3142 3141 3141 3140 3140 3139 3139 3139 3138 3138 3138 3138 3137 3137 3137 3138 3139 3139 3139 3141 3143 3144 3145 3147 3148 3150 3151 3152 3154 3155 3157 3158 3160 3161 3162 3166 3169 3170 3172 3173 3172 3172 3172 3172 3172 3171 3172 3173 3174 3175 3175 3176 3178 3181 3183 3184 3185 3182 3183 3188 3189 3191 3192 3191 3193 3194 3195 3196 3197 3198 3199 3200 3201 3202
3150 3149 3149 3148 3147 3147 3146 3145 3145 3144 3143 3143 3142 3142 3141 3140 3140 3139 3139 3138 3138 3138 3137 3137 3137 3137 3137 3136 3136 3137 3137 3138 3140 3140 3141 3143 3144 3146 3147 3148 3150 3151 3153 3155 3156 3158 3159 3161 3162 3165 3168 3170 3172 3172 3172 3172 3172 3172 3172 3172 3172 3173 3174 3175 3175 3176 3179 3181 3182 3184 3184 3184 3186 3189 3190 3192 3192 3191 3193 3194 3195 3196 3197 3198 3199 3200 3202 3203
3150 3149 3148 3148 3147 3146 3146 3145 3144 3143 3143 3142 3142 3141 3140 3140 3139 3138 3138 3137 3137 3137 3136 3136 3136 3135 3135 3135 3136 3136 3135 3137 3139 3138 3139 3142 3143 3145 3146 3147 3149 3150 3152 3154 3155 3157 3158 3160 3163 3165 3167 3170 3172 3172 3172 3172 3171 3172 3172 3172 3173 3172 3173 3174 3175 3177 3179 3180 3182 3184 3185 3186 3189 3190 3191 3193 3193 3191 3193 3194 3195 3196 3197 3199 3200 3201 3202 3204
3150 3149 3148 3147 3147 3146 3145 3144 3144 3143 3142 3142 3141 3140 3140 3139 3138 3137 3137 3136 3136 3135 3135 3135 3134 3134 3134 3134 3135 3135 3136 3137 3136 3136 3138 3141 3141 3143 3145 3145 3147 3149 3151 3152 3154 3156 3157 3160 3163 3166 3168 3170 3172 3172 3171 3171 3171 3171 3172 3172 3172 3172 3173 3174 3176 3177 3179 3180 3182 3184 3185 3187 3189 3190 3192 3193 3193 3192 3193 3194 3195 3196 3198 3199 3200 3202 3203 3205
3149 3148 3148 3147 3146 3146 3145 3144 3143 3143 3142 3141 3140 3140 3139 3138 3137 3136 3136 3135 3135 3134 3134 3133 3133 3133 3133 3133 3134 3135 3137 3136 3134 3134 3136 3139 3140 3142 3143 3145 3146 3148 3150 3151 3153 3156 3157 3159 3162 3167 3169 3171 3172 3171 3170 3170 3170 3171 3171 3172 3172 3171 3173 3174 3176 3177 3178 3180 3182 3184 3186 3188 3190 3191 3192 3193 3193 3193 3194 3195 3196 3197 3198 3200 3201 3203 3204 3206
3149 3148 3147 3147 3146 3145 3144 3144 3143 3142 3141 3141 3140 3139 3138 3137 3136 3135 3135 3134 3134 3133 3133 3132 3132 3132 3131 3132 3133 3134 3135 3134 3135 3135 3135 3138 3140 3141 3142 3144 3145 3147 3149 3151 3152 3155 3157 3158 3161 3165 3168 3170 3172 3171 3168 3168 3169 3170 3170 3170 3171 3171 3172 3174 3175 3177 3178 3180 3182 3184 3186 3188 3189 3190 3192 3192 3193 3194 3195 3196 3197 3198 3199 3200 3202 3204 3205 3207
3148 3148 3147 3146 3145 3145 3144 3143 3142 3142 3141 3140 3139 3138 3137 3136 3135 3134 3134 3133 3133 3132 3132 3131 3131 3130 3130 3131 3131 3132 3133 3133 3135 3134 3134 3137 3139 3140 3141 3143 3144 3146 3148 3150 3152 3154 3157 3158 3160 3163 3166 3169 3171 3170 3167 3168 3169 3169 3170 3170 3170 3170 3171 3173 3175 3177 3178 3180 3182 3183 3185 3187 3189 3190 3191 3192 3193 3194 3195 3197 3198 3199 3200 3201 3202 3204 3206 3208
3148 3147 3146 3145 3145 3144 3143 3142 3142 3141 3140 3139 3138 3137 3136 3135 3135 3134 3133 3132 3132 3131 3131 3130 3130 3130 3130 3130 3130 3131 3131 3132 3133 3133 3133 3135 3137 3138 3140 3141 3143 3145 3147 3149 3150 3153 3157 3159 3160 3162 3164 3166 3168 3168 3166 3167 3169 3169 3169 3169 3169 3169 3170 3172 3175 3177 3178 3179 3181 3183 3185 3186 3188 3190 3191 3193 3194 3195 3196 3198 3199 3200 3200 3201 3203 3205 3206 3208
3147 3146 3145 3145 3144 3143 3143 3142 3141 3140 3139 3138 3137 3137 3136 3135 3134 3133 3133 3132 3132 3131 3130 3130 3129 3129 3129 3129 3130 3130 3130 3131 3131 3131 3132 3134 3135 3137 3139 3141 3142 3144 3146 3149 3150 3152 3155 3159 3160 3160 3162 3164 3166 3167 3167 3166 3168 3167 3168 3169 3169 3170 3170 3172 3175 3177 3178 3179 3181 3183 3185 3186 3187 3188 3190 3193 3195 3196 3197 3199 3200 3200 3201 3202 3203 3204 3206 3208
3146 3146 3145 3144 3144 3143 3142 3141 3140 3139 3139 3138 3137 3136 3136 3135 3134 3134 3133 3132 3132 3131 3130 3130 3129 3129 3129 3129 3129 3130 3129 3129 3130 3130 3131 3133 3134 3136 3138 3140 3141 3143 3146 3148 3150 3151 3154 3157 3159 3160 3162 3163 3165 3167 3167 3166 3166 3167 3166 3167 3168 3170 3170 3172 3174 3176 3178 3179 3180 3182 3184 3185 3187 3188 3190 3193 3196 3197 3198 3199 3200 3200 3201 3202 3203 3204 3206 3208
3146 3145 3145 3144 3143 3142 3141 3140 3140 3139 3138 3137 3136 3136 3135 3135 3134 3134 3133 3133 3132 3132 3131 3130 3130 3129 3130 3130 3130 3129 3129 3129 3129 3130 3131 3132 3134 3136 3138 3139 3140 3143 3145 3147 3149 3151 3154 3156 3157 3159 3160 3161 3163 3166 3166 3165 3165 3166 3166 3166 3167 3169 3170 3171 3173 3175 3177 3180 3180 3182 3184 3185 3187 3188 3190 3193 3196 3197 3199 3200 3200 3201 3202 3203 3204 3204 3206 3207
3145 3145 3144 3144 3143 3142 3141 3140 3139 3139 3138 3137 3136 3136 3135 3135 3134 3134 3134 3133 3133 3132 3132 3131 3130 3130 3130 3131 3130 3130 3129 3129 3130 3130 3131 3132 3134 3136 3138 3139 3140 3142 3144 3147 3149 3151 3153 3155 3156 3158 3159 3160 3161 3163 3165 3165 3164 3165 3165 3165 3166 3168 3169 3170 3171 3173 3176 3179 3180 3181 3184 3185 3187 3188 3190 3193 3196 3197 3199 3200 3201 3201 3202 3203 3204 3205 3206 3208
3145 3144 3144 3143 3142 3141 3141 3140 3139 3139 3138 3137 3136 3136 3135 3134 3133 3133 3133 3133 3133 3132 3132 3131 3131 3131 3131 3131 3131 3131 3131 3131 3131 3131 3132 3133 3134 3136 3137 3139 3140 3142 3144 3146 3148 3150 3152 3154 3155 3156 3158 3159 3160 3161 3163 3164 3164 3165 3165 3165 3166 3167 3168 3169 3170 3172 3175 3178 3180 3181 3183 3185 3186 3188 3190 3193 3195 3197 3199 3200 3201 3201 3202 3204 3204 3205 3207 3208
3144 3144 3144 3143 3142 3141 3140 3140 3139 3139 3138 3137 3136 3136 3135 3134 3133 3133 3133 3132 3133 3132 3132 3131 3131 3130 3131 3132 3133 3132 3132 3132 3132 3132 3132 3133 3135 3136 3137 3138 3140 3142 3144 3146 3148 3150 3151 3153 3153 3154 3156 3157 3159 3162 3163 3164 3164 3165 3165 3165 3166 3166 3167 3168 3169 3172 3175 3177 3179 3181 3182 3184 3186 3188 3190 3193 3195 3196 3198 3199 3200 3200 3201 3204 3204 3205 3207 3208
3144 3144 3143 3143 3142 3141 3140 3140 3140 3139 3138 3137 3137 3136 3135 3134 3133 3133 3132 3132 3132 3131 3132 3131 3131 3131 3131 3132 3133 3133 3132 3132 3132 3132 3132 3134 3135 3136 3137 3138 3140 3142 3143 3145 3147 3149 3150 3151 3152 3153 3155 3156 3158 3162 3163 3163 3163 3164 3165 3165 3166 3166 3166 3167 3168 3171 3174 3176 3178 3180 3182 3183 3184 3187 3189 3192 3194 3195 3197 3199 3200 3200 3201 3203 3204 3205 3207 3208
3144 3143 3143 3142 3142 3141 3141 3141 3140 3139 3139 3138 3137 3136 3136 3135 3134 3134 3134 3132 3131 3130 3131 3131 3130 3131 3131 3131 3133 3133 3132 3132 3132 3133 3133 3134 3135 3136 3137 3138 3140 3142 3143 3144 3147 3149 3149 3149 3151 3152 3154 3156 3157 3160 3162 3162 3162 3163 3164 3165 3165 3165 3166 3167 3169 3171 3174 3176 3177 3179 3181 3182 3183 3185 3188 3190 3192 3194 3196 3198 3199 3200 3201 3203 3204 3205 3207 3208
3144 3143 3143 3142 3142 3141 3141 3141 3141 3140 3139 3138 3138 3137 3137 3136 3134 3135 3136 3133 3131 3129 3130 3131 3130 3132 3132 3131 3132 3132 3132 3132 3133 3133 3133 3134 3135 3136 3138 3139 3140 3142 3143 3144 3145 3147 3148 3148 3150 3152 3154 3155 3156 3159 3161 3161 3161 3162 3163 3163 3163 3164 3165 3166 3168 3171 3173 3175 3177 3178 3180 3181 3183 3184 3186 3188 3191 3193 3194 3197 3199 3200 3201 3203 3203 3205 3206 3207
3143 3143 3143 3142 3142 3142 3142 3142 3141 3140 3140 3139 3139 3138 3138 3136 3134 3136 3136 3134 3131 3130 3129 3131 3132 3132 3132 3132 3132 3132 3132 3133 3133 3133 3133 3134 3135 3137 3138 3139 3141 3141 3143 3144 3144 3146 3147 3147 3148 3150 3152 3154 3154 3157 3159 3159 3160 3161 3161 3162 3162 3163 3164 3165 3167 3169 3171 3174 3176 3177 3180 3181 3182 3183 3185 3187 3189 3192 3193 3195 3198 3200 3202 3203 3203 3205 3206 3207
3143 3143 3143 3142 3142 3142 3142 3142 3142 3141 3140 3140 3140 3139 3138 3137 3136 3136 3135 3133 3132 3130 3129 3132 3133 3132 3132 3133 3132 3133 3133 3133 3134 3134 3133 3134 3135 3137 3138 3139 3140 3141 3142 3143 3144 3145 3145 3147 3148 3149 3150 3151 3153 3156 3157 3157 3159 3159 3159 3160 3161 3161 3163 3164 3166 3167 3169 3172 3174 3176 3179 3180 3181 3182 3183 3186 3188 3190 3192 3194 3196 3198 3201 3202 3203 3204 3205 3206
3143 3143 3142 3142 3142 3142 3142 3142 3142 3141 3140 3138 3138 3140 3139 3138 3138 3138 3136 3133 3132 3131 3131 3132 3133 3132 3132 3133 3133 3133 3133 3133 3133 3134 3133 3134 3135 3135 3138 3139 3140 3140 3141 3143 3145 3144 3143 3145 3147 3148 3149 3150 3152 3154 3155 3156 3157 3157 3157 3158 3159 3161 3162 3163 3164 3166 3167 3169 3172 3174 3177 3178 3179 3180 3182 3184 3187 3189 3191 3193 3194 3196 3199 3201 3202 3203 3204 3205
3143 3143 3142 3142 3142 3142 3143 3142 3142 3141 3140 3138 3138 3139 3140 3139 3139 3138 3136 3134 3132 3132 3132 3133 3133 3133 3132 3133 3133 3134 3133 3133 3133 3133 3133 3134 3135 3134 3135 3137 3139 3140 3140 3142 3143 3143 3142 3142 3145 3148 3148 3149 3151 3152 3153 3154 3155 3155 3155 3157 3158 3160 3162 3163 3164 3166 3166 3168 3171 3173 3175 3176 3177 3178 3181 3183 3185 3187 3189 3191 3193 3194 3196 3199 3201 3202 3203 3204
3143 3143 3142 3142 3142 3143 3143 3143 3142 3141 3140 3140 3140 3140 3140 3140 3140 3138 3138 3137 3134 3132 3133 3133 3133 3133 3132 3132 3133 3134 3134 3133 3133 3134 3134 3134 3135 3135 3135 3135 3138 3139 3140 3141 3141 3141 3142 3141 3143 3145 3146 3149 3150 3150 3152 3152 3152 3155 3157 3158 3158 3159 3161 3162 3164 3166 3167 3168 3170 3171 3173 3175 3175 3176 3179 3181 3183 3184 3186 3188 3191 3193 3194 3197 3199 3201 3203 3204
3143 3143 3142 3142 3142 3143 3143 3143 3142 3142 3141 3142 3142 3142 3141 3141 3140 3139 3140 3139 3134 3132 3133 3133 3133 3133 3133 3133 3134 3134 3135 3134 3134 3135 3135 3134 3135 3135 3135 3135 3137 3138 3138 3140 3139 3139 3141 3141 3142 3143 3145 3147 3148 3150 3152 3149 3151 3156 3157 3158 3159 3159 3160 3163 3164 3166 3167 3169 3169 3169 3170 3173 3174 3174 3176 3178 3178 3180 3184 3187 3190 3192 3193 3195 3198 3200 3202 3203
3143 3142 3142 3142 3143 3143 3143 3143 3143 3143 3143 3143 3143 3142 3141 3140 3139 3140 3142 3138 3133 3132 3133 3133 3133 3133 3134 3134 3134 3134 3135 3134 3134 3135 3135 3135 3135 3135 3135 3136 3137 3137 3137 3138 3137 3137 3139 3141 3141 3142 3144 3146 3147 3150 3150 3149 3152 3156 3154 3155 3158 3160 3162 3164 3164 3165 3168 3169 3167 3167 3169 3171 3172 3172 3173 3174 3175 3178 3182 3185 3187 3190 3192 3194 3196 3199 3200 3202
3143 3142 3142 3142 3143 3143 3143 3144 3144 3144 3144 3143 3143 3142 3140 3140 3140 3141 3140 3135 3132 3133 3133 3133 3133 3134 3134 3134 3134 3134 3135 3134 3135 3135 3135 3135 3135 3136 3136 3136 3137 3137 3136 3136 3136 3137 3137 3139 3141 3141 3143 3144 3146 3149 3149 3149 3153 3154 3151 3152 3156 3161 3163 3164 3166 3167 3169 3169 3166 3167 3169 3170 3171 3170 3171 3173 3175 3178 3180 3183 3185 3188 3190 3192 3195 3198 3199 3201
3142 3142 3142 3142 3143 3144 3144 3144 3145 3144 3144 3144 3143 3142 3140 3140 3140 3139 3136 3133 3134 3134 3134 3133 3133 3133 3135 3135 3135 3134 3134 3135 3135 3135 3135 3135 3135 3136 3136 3135 3136 3137 3136 3135 3136 3137 3136 3138 3140 3140 3142 3143 3143 3147 3148 3149 3152 3154 3151 3150 3154 3161 3165 3166 3168 3169 3170 3169 3167 3167 3169 3170 3169 3168 3169 3171 3173 3176 3178 3181 3184 3186 3188 3190 3193 3196 3198 3200
3142 3141 3141 3142 3143 3144 3144 3145 3145 3145 3145 3145 3144 3142 3141 3142 3140 3136 3134 3134 3134 3134 3133 3134 3133 3134 3135 3134 3135 3134 3134 3135 3135 3134 3135 3135 3135 3136 3136 3135 3136 3136 3136 3136 3136 3137 3136 3137 3139 3139 3140 3142 3141 3143 3146 3147 3151 3152 3150 3149 3152 3158 3163 3168 3170 3170 3169 3169 3167 3167 3168 3169 3168 3166 3168 3169 3171 3174 3177 3180 3183 3186 3188 3189 3192 3195 3197 3198
3141 3141 3141 3142 3143 3144 3144 3145 3145 3145 3145 3145 3144 3142 3141 3142 3139 3136 3136 3135 3135 3135 3133 3133 3134 3133 3133 3133 3134 3134 3134 3135 3135 3134 3134 3135 3135 3135 3135 3135 3135 3135 3136 3136 3135 3136 3136 3136 3137 3138 3139 3141 3141 3141 3144 3147 3149 3149 3148 3148 3150 3153 3158 3164 3167 3168 3168 3167 3167 3168 3167 3167 3166 3165 3166 3167 3169 3172 3175 3178 3181 3183 3186 3188 3191 3194 3195 3197
3141 3141 3141 3142 3143 3144 3144 3145 3145 3145 3146 3145 3144 3143 3142 3142 3139 3137 3137 3136 3136 3135 3134 3133 3133 3133 3132 3132 3133 3134 3134 3134 3134 3133 3134 3134 3134 3134 3135 3135 3135 3134 3136 3136 3135 3135 3136 3135 3136 3137 3138 3139 3140 3141 3144 3146 3147 3147 3147 3147 3148 3150 3153 3158 3162 3163 3165 3165 3166 3167 3166 3165 3165 3164 3164 3164 3165 3168 3171 3175 3177 3179 3183 3186 3189 3191 3193 3195
3140 3141 3141 3142 3143 3144 3145 3145 3145 3145 3146 3145 3144 3143 3143 3142 3140 3139 3138 3137 3136 3135 3134 3133 3133 3133 3133 3132 3132 3133 3134 3134 3133 3133 3134 3134 3133 3133 3134 3134 3134 3134 3135 3136 3135 3135 3134 3134 3134 3136 3137 3138 3139 3141 3144 3145 3145 3146 3146 3146 3147 3149 3150 3154 3159 3161 3163 3165 3166 3166 3165 3165 3164 3163 3163 3163 3163 3165 3168 3171 3174 3178 3183 3185 3187 3189 3192 3194
3140 3141 3141 3142 3142 3144 3145 3145 3146 3146 3146 3146 3144 3143 3143 3142 3141 3140 3139 3138 3136 3135 3135 3134 3134 3134 3134 3133 3132 3132 3133 3134 3133 3133 3134 3134 3134 3133 3133 3133 3133 3134 3134 3134 3135 3135 3134 3133 3132 3134 3136 3137 3139 3140 3142 3145 3145 3145 3147 3147 3148 3149 3150 3152 3157 3161 3163 3166 3166 3165 3165 3165 3163 3162 3162 3162 3162 3164 3168 3171 3174 3178 3181 3184 3185 3187 3190 3192
3140 3140 3141 3142 3141 3143 3145 3145 3146 3146 3145 3145 3145 3144 3142 3140 3140 3140 3140 3139 3137 3136 3136 3135 3135 3135 3134 3134 3133 3132 3133 3133 3133 3134 3134 3135 3134 3133 3134 3134 3133 3133 3134 3134 3135 3135 3135 3133 3131 3133 3135 3135 3139 3140 3141 3143 3144 3145 3147 3147 3148 3150 3151 3151 3154 3158 3162 3165 3165 3163 3163 3163 3161 3160 3160 3161 3162 3164 3168 3171 3172 3174 3178 3181 3184 3186 3188 3190
3140 3140 3141 3142 3141 3143 3145 3145 3145 3146 3145 3145 3145 3144 3142 3140 3139 3140 3140 3139 3137 3137 3137 3136 3136 3135 3135 3135 3134 3133 3134 3134 3134 3134 3135 3136 3135 3134 3135 3135 3134 3135 3135 3135 3136 3135 3135 3134 3132 3133 3135 3135 3137 3139 3140 3141 3143 3144 3146 3146 3147 3149 3150 3150 3151 3153 3157 3162 3163 3162 3162 3160 3158 3159 3159 3160 3162 3164 3166 3168 3169 3171 3174 3177 3181 3183 3185 3187
3140 3141 3141 3141 3142 3145 3145 3145 3146 3146 3145 3144 3144 3144 3142 3141 3140 3140 3139 3139 3138 3137 3138 3137 3136 3135 3135 3136 3135 3134 3134 3135 3135 3135 3136 3137 3137 3135 3135 3135 3135 3136 3136 3136 3137 3135 3135 3135 3134 3134 3136 3136 3136 3137 3139 3140 3141 3143 3145 3145 3146 3148 3148 3148 3149 3150 3152 3157 3159 3161 3161 3158 3156 3157 3158 3160 3161 3163 3164 3165 3166 3168 3171 3174 3178 3181 3183 3184
3141 3141 3141 3141 3143 3145 3145 3146 3146 3145 3144 3144 3143 3142 3142 3141 3140 3140 3139 3139 3138 3138 3138 3137 3137 3136 3136 3136 3136 3135 3135 3135 3136 3136 3137 3138 3137 3136 3136 3135 3135 3136 3136 3136 3137 3136 3135 3135 3134 3133 3134 3135 3135 3136 3138 3140 3141 3143 3144 3144 3145 3146 3147 3148 3149 3150 3150 3152 3154 3156 3157 3156 3156 3157 3157 3159 3160 3161 3163 3164 3164 3166 3168 3171 3174 3178 3181 3183
3140 3140 3142 3144 3144 3144 3145 3146 3145 3145 3144 3144 3143 3143 3142 3141 3141 3140 3138 3138 3138 3138 3138 3138 3137 3137 3137 3137 3136 3135 3135 3136 3136 3137 3137 3137 3137 3136 3136 3136 3135 3135 3135 3135 3135 3135 3135 3135 3134 3133 3133 3133 3134 3135 3137 3139 3141 3142 3144 3144 3144 3145 3146 3147 3148 3149 3150 3150 3151 3153 3155 3156 3156 3156 3157 3158 3159 3160 3161 3162 3162 3164 3166 3168 3172 3176 3179 3182
3140 3139 3141 3144 3144 3145 3145 3145 3144 3145 3144 3143 3143 3143 3142 3142 3142 3140 3138 3138 3139 3139 3138 3138 3138 3138 3138 3137 3137 3136 3135 3135 3137 3137 3136 3136 3137 3137 3136 3136 3136 3135 3135 3134 3135 3135 3136 3136 3135 3133 3132 3132 3132 3135 3137 3137 3139 3141 3142 3142 3143 3144 3144 3145 3146 3147 3149 3150 3151 3153 3156 3156 3155 3156 3156 3157 3158 3159 3160 3161 3162 3162 3164 3167 3171 3175 3178 3181
3140 3141 3141 3143 3144 3144 3144 3144 3143 3144 3144 3143 3141 3141 3141 3141 3141 3141 3140 3140 3140 3140 3139 3139 3139 3138 3138 3138 3138 3137 3136 3136 3137 3137 3136 3137 3137 3137 3136 3136 3136 3136 3135 3135 3136 3136 3136 3136 3136 3136 3135 3133 3131 3134 3137 3137 3138 3139 3140 3141 3143 3143 3143 3144 3145 3145 3146 3148 3149 3152 3155 3155 3155 3156 3156 3156 3157 3158 3159 3161 3162 3163 3164 3167 3170 3174 3177 3180
3140 3141 3141 3142 3143 3143 3143 3143 3143 3143 3144 3143 3142 3141 3140 3140 3140 3141 3141 3140 3141 3140 3140 3139 3139 3138 3138 3138 3138 3138 3137 3137 3137 3137 3137 3138 3138 3137 3137 3137 3137 3137 3137 3136 3136 3136 3137 3137 3137 3138 3139 3138 3136 3136 3137 3138 3139 3138 3138 3140 3142 3142 3142 3143 3143 3143 3144 3145 3146 3148 3150 3152 3154 3155 3155 3156 3156 3157 3159 3161 3163 3165 3167 3168 3171 3173 3175 3178
3140 3140 3141 3141 3142 3142 3142 3142 3143 3142 3142 3142 3142 3140 3140 3140 3140 3140 3140 3140 3140 3140 3139 3139 3139 3139 3138 3138 3138 3138 3138 3137 3138 3138 3138 3139 3138 3138 3137 3137 3138 3138 3137 3137 3136 3136 3137 3138 3138 3139 3140 3139 3139 3138 3138 3139 3139 3138 3138 3139 3139 3140 3141 3142 3142 3141 3142 3143 3145 3147 3148 3150 3152 3153 3155 3155 3156 3158 3159 3161 3163 3165 3167 3170 3171 3173 3175 3177
3139 3139 3140 3139 3140 3141 3142 3142 3142 3142 3141 3141 3141 3140 3140 3140 3140 3140 3140 3140 3140 3140 3139 3139 3139 3139 3139 3138 3138 3138 3138 3138 3138 3138 3138 3139 3139 3138 3138 3138 3139 3139 3138 3137 3136 3136 3137 3137 3139 3139 3139 3139 3138 3137 3137 3138 3139 3139 3139 3139 3138 3138 3141 3142 3140 3138 3139 3141 3144 3147 3148 3149 3150 3152 3154 3155 3157 3158 3159 3160 3161 3164 3167 3170 3170 3171 3173 3175
3137 3138 3138 3137 3137 3138 3140 3140 3141 3141 3141 3141 3140 3140 3140 3140 3140 3140 3140 3140 3139 3139 3139 3139 3139 3139 3139 3138 3138 3138 3138 3138 3138 3138 3138 3138 3138 3139 3139 3139 3139 3139 3139 3138 3137 3137 3137 3138 3138 3138 3138 3138 3137 3137 3137 3137 3139 3140 3140 3140 3138 3137 3139 3138 3136 3137 3139 3139 3142 3145 3147 3149 3150 3152 3154 3155 3156 3158 3158 3159 3160 3163 3165 3167 3168 3169 3171 3173
3134 3134 3134 3135 3136 3136 3137 3138 3139 3140 3139 3140 3140 3140 3140 3140 3140 3140 3140 3140 3140 3139 3139 3139 3139 3139 3139 3139 3139 3139 3139 3139 3139 3138 3138 3138 3139 3139 3138 3138 3138 3138 3139 3139 3139 3138 3138 3138 3138 3138 3138 3136 3136 3137 3137 3138 3139 3139 3139 3140 3138 3136 3136 3136 3136 3139 3141 3141 3143 3146 3148 3149 3151 3153 3155 3155 3155 3157 3158 3158 3159 3161 3163 3164 3166 3168 3169 3171
3133 3133 3134 3135 3136 3137 3136 3136 3138 3140 3139 3139 3139 3140 3140 3140 3140 3139 3139 3140 3140 3140 3139 3139 3139 3139 3139 3139 3139 3139 3140 3140 3140 3140 3139 3139 3140 3140 3139 3139 3139 3139 3139 3140 3139 3138 3139 3139 3138 3138 3138 3136 3136 3137 3136 3139 3141 3139 3139 3142 3139 3135 3135 3137 3139 3141 3142 3144 3146 3146 3146 3148 3152 3154 3155 3155 3155 3156 3157 3158 3158 3160 3161 3162 3164 3166 3167 3169
3133 3134 3134 3135 3135 3136 3136 3136 3137 3139 3139 3139 3139 3139 3139 3140 3140 3139 3139 3140 3140 3140 3140 3139 3139 3139 3140 3140 3140 3140 3139 3140 3140 3140 3140 3140 3140 3140 3140 3140 3140 3140 3139 3139 3139 3139 3139 3139 3138 3138 3137 3136 3136 3136 3136 3137 3137 3135 3139 3143 3140 3137 3138 3140 3143 3145 3145 3147 3147 3145 3146 3149 3152 3154 3155 3154 3153 3155 3156 3157 3157 3159 3160 3161 3162 3164 3165 3166
3133 3133 3134 3134 3134 3135 3136 3136 3136 3137 3139 3139 3139 3139 3139 3139 3139 3138 3139 3140 3140 3140 3140 3140 3140 3139 3139 3140 3139 3138 3138 3139 3139 3139 3139 3140 3140 3140 3140 3141 3141 3140 3139 3139 3139 3139 3140 3139 3138 3138 3138 3136 3136 3137 3136 3135 3135 3138 3143 3145 3143 3142 3142 3143 3145 3148 3149 3149 3148 3148 3150 3153 3154 3155 3154 3153 3153 3155 3157 3157 3156 3157 3159 3160 3162 3163 3163 3164